Time,TemperatureF,DewpointF,PressureIn,WindDirection,WindDirectionDegrees,WindSpeedMPH,WindSpeedGustMPH,Humidity,HourlyPrecipIn,Conditions,Clouds,dailyrainin,SoftwareType,DateUTC
2013-01-11 00:14:00,52.4,52.0,29.76,South,180,3.0,10.0,98,0.04,,,0.78,weatherlink.com 1.10,2013-01-11 06:14:00,
2013-01-11 00:29:00,52.0,52.0,29.75,WSW,245,3.0,10.0,98,0.01,,,0.78,weatherlink.com 1.10,2013-01-11 06:29:00,
2013-01-11 00:44:00,51.0,50.0,29.76,SW,217,5.0,12.0,97,0.00,,,0.78,weatherlink.com 1.10,2013-01-11 06:44:00,
2013-01-11 00:59:00,50.1,49.0,29.76,SW,224,13.0,15.0,97,0.00,,,0.00,weatherlink.com 1.10,2013-01-11 06:59:00,
2013-01-11 01:14:00,49.7,49.0,29.77,SW,235,4.0,11.0,97,0.00,,,0.00,weatherlink.com 1.10,2013-01-11 07:14:00,
2013-01-11 01:29:00,49.4,49.0,29.77,SW,233,6.0,11.0,97,0.00,,,0.00,weatherlink.com 1.10,2013-01-11 07:29:00,
2013-01-11 01:44:00,49.0,48.0,29.78,WSW,244,3.0,9.0,97,0.00,,,0.00,weatherlink.com 1.10,2013-01-11 07:44:00,
2013-01-11 01:59:00,48.8,48.0,29.79,SW,222,6.0,9.0,97,0.00,,,0.00,weatherlink.com 1.10,2013-01-11 07:59:00,
2013-01-11 02:14:00,48.5,48.0,29.80,WSW,250,7.0,10.0,98,0.00,,,0.00,weatherlink.com 1.10,2013-01-11 08:14:00,
2013-01-11 02:29:00,48.3,48.0,29.80,SW,233,4.0,11.0,98,0.00,,,0.00,weatherlink.com 1.10,2013-01-11 08:29:00,
2013-01-11 02:44:00,48.3,48.0,29.80,SW,236,6.0,10.0,98,0.00,,,0.00,weatherlink.com 1.10,2013-01-11 08:44:00,
2013-01-11 02:59:00,48.2,48.0,29.80,SW,228,3.0,11.0,98,0.00,,,0.00,weatherlink.com 1.10,2013-01-11 08:59:00,
2013-01-11 03:14:00,48.0,48.0,29.80,SW,220,4.0,10.0,98,0.00,,,0.00,weatherlink.com 1.10,2013-01-11 09:14:00,
2013-01-11 03:45:00,47.5,47.0,29.80,West,269,5.0,11.0,98,0.00,,,0.00,weatherlink.com 1.10,2013-01-11 09:45:00,
2013-01-11 04:00:00,47.1,47.0,29.79,WSW,245,3.0,11.0,98,0.00,,,0.00,weatherlink.com 1.10,2013-01-11 10:00:00,
2013-01-11 04:15:00,46.9,46.0,29.78,WSW,252,5.0,10.0,98,0.00,,,0.00,weatherlink.com 1.10,2013-01-11 10:15:00,
2013-01-11 04:30:00,46.6,46.0,29.79,WSW,252,4.0,10.0,98,0.00,,,0.00,weatherlink.com 1.10,2013-01-11 10:30:00,
2013-01-11 04:45:00,46.4,46.0,29.79,WSW,242,6.0,9.0,98,0.00,,,0.00,weatherlink.com 1.10,2013-01-11 10:45:00,
2013-01-11 05:00:00,46.6,46.0,29.79,WSW,248,4.0,10.0,98,0.00,,,0.00,weatherlink.com 1.10,2013-01-11 11:00:00,
2013-01-11 05:15:00,46.6,46.0,29.80,SW,222,5.0,10.0,98,0.00,,,0.00,weatherlink.com 1.10,2013-01-11 11:15:00,
2013-01-11 05:30:00,46.5,46.0,29.79,WSW,245,4.0,9.0,98,0.00,,,0.00,weatherlink.com 1.10,2013-01-11 11:30:00,
2013-01-11 05:45:00,46.5,46.0,29.80,WSW,246,8.0,14.0,98,0.00,,,0.00,weatherlink.com 1.10,2013-01-11 11:45:00,
2013-01-11 06:00:00,46.6,46.0,29.82,West,266,6.0,10.0,98,0.00,,,0.00,weatherlink.com 1.10,2013-01-11 12:00:00,
2013-01-11 06:15:00,46.8,46.0,29.82,SW,236,5.0,10.0,98,0.00,,,0.00,weatherlink.com 1.10,2013-01-11 12:15:00,
2013-01-11 06:30:00,46.7,46.0,29.82,SW,236,8.0,11.0,98,0.00,,,0.00,weatherlink.com 1.10,2013-01-11 12:30:00,
2013-01-11 06:45:00,46.7,46.0,29.82,WSW,240,4.0,8.0,98,0.00,,,0.00,weatherlink.com 1.10,2013-01-11 12:45:00,
2013-01-11 07:00:00,46.7,46.0,29.83,SW,225,7.0,10.0,97,0.00,,,0.00,weatherlink.com 1.10,2013-01-11 13:00:00,
2013-01-11 07:15:00,46.6,46.0,29.83,SW,226,5.0,11.0,98,0.00,,,0.00,weatherlink.com 1.10,2013-01-11 13:15:00,
2013-01-11 07:30:00,46.6,46.0,29.82,SSW,195,3.0,11.0,98,0.00,,,0.00,weatherlink.com 1.10,2013-01-11 13:30:00,
2013-01-11 07:45:00,46.5,46.0,29.83,SW,224,6.0,11.0,98,0.00,,,0.00,weatherlink.com 1.10,2013-01-11 13:45:00,
2013-01-11 08:00:00,46.7,46.0,29.84,SW,225,5.0,11.0,98,0.00,,,0.00,weatherlink.com 1.10,2013-01-11 14:00:00,
2013-01-11 08:15:00,46.9,46.0,29.84,SW,233,6.0,12.0,97,0.00,,,0.00,weatherlink.com 1.10,2013-01-11 14:15:00,
2013-01-11 08:30:00,47.3,47.0,29.85,SW,231,4.0,13.0,97,0.00,,,0.00,weatherlink.com 1.10,2013-01-11 14:30:00,
2013-01-11 08:45:00,47.5,47.0,29.86,SW,232,10.0,12.0,97,0.00,,,0.00,weatherlink.com 1.10,2013-01-11 14:45:00,
2013-01-11 09:15:00,48.4,48.0,29.85,SW,229,6.0,15.0,97,0.00,,,0.00,weatherlink.com 1.10,2013-01-11 15:15:00,
2013-01-11 09:30:00,48.6,48.0,29.84,WSW,238,5.0,11.0,97,0.00,,,0.00,weatherlink.com 1.10,2013-01-11 15:30:00,
2013-01-11 09:45:00,48.8,48.0,29.84,SSW,208,8.0,13.0,97,0.00,,,0.00,weatherlink.com 1.10,2013-01-11 15:45:00,
2013-01-11 10:00:00,49.2,48.0,29.84,SSW,211,4.0,11.0,96,0.00,,,0.00,weatherlink.com 1.10,2013-01-11 16:00:00,
2013-01-11 10:15:00,49.9,49.0,29.84,SW,221,2.0,12.0,96,0.00,,,0.00,weatherlink.com 1.10,2013-01-11 16:15:00,
2013-01-11 10:30:00,51.0,49.0,29.84,SSW,203,4.0,10.0,94,0.00,,,0.00,weatherlink.com 1.10,2013-01-11 16:30:00,
2013-01-11 10:45:00,52.5,49.0,29.84,WSW,238,4.0,16.0,89,0.00,,,0.00,weatherlink.com 1.10,2013-01-11 16:45:00,
2013-01-11 11:00:00,53.0,49.0,29.82,SW,215,2.0,14.0,87,0.00,,,0.00,weatherlink.com 1.10,2013-01-11 17:00:00,
2013-01-11 11:15:00,53.6,49.0,29.82,WSW,252,6.0,16.0,85,0.00,,,0.00,weatherlink.com 1.10,2013-01-11 17:15:00,
2013-01-11 11:31:00,54.2,49.0,29.80,WSW,245,6.0,17.0,83,0.00,,,0.00,weatherlink.com 1.10,2013-01-11 17:31:00,
2013-01-11 11:46:00,54.2,49.0,29.80,SW,224,4.0,13.0,81,0.00,,,0.00,weatherlink.com 1.10,2013-01-11 17:46:00,
2013-01-11 12:01:00,54.5,48.0,29.79,SSW,193,5.0,18.0,80,0.00,,,0.00,weatherlink.com 1.10,2013-01-11 18:01:00,
2013-01-11 12:16:00,55.1,48.0,29.79,SSW,212,6.0,17.0,78,0.00,,,0.00,weatherlink.com 1.10,2013-01-11 18:16:00,
2013-01-11 12:31:00,54.9,49.0,29.79,SW,229,10.0,15.0,79,0.00,,,0.00,weatherlink.com 1.10,2013-01-11 18:31:00,
2013-01-11 12:46:00,55.8,49.0,29.78,SW,233,5.0,17.0,78,0.00,,,0.00,weatherlink.com 1.10,2013-01-11 18:46:00,
2013-01-11 13:01:00,57.5,50.0,29.76,SSW,210,3.0,15.0,76,0.00,,,0.00,weatherlink.com 1.10,2013-01-11 19:01:00,
2013-01-11 13:16:00,58.2,50.0,29.76,SE,141,14.0,18.0,73,0.00,,,0.00,weatherlink.com 1.10,2013-01-11 19:16:00,
2013-01-11 13:31:00,59.6,49.0,29.75,South,181,12.0,18.0,69,0.00,,,0.00,weatherlink.com 1.10,2013-01-11 19:31:00,
2013-01-11 13:46:00,59.8,49.0,29.76,SSW,212,6.0,29.0,67,0.00,,,0.00,weatherlink.com 1.10,2013-01-11 19:46:00,
2013-01-11 14:01:00,60.7,49.0,29.76,SSW,200,6.0,17.0,66,0.00,,,0.00,weatherlink.com 1.10,2013-01-11 20:01:00,
2013-01-11 14:16:00,61.1,50.0,29.76,WSW,249,8.0,22.0,66,0.00,,,0.00,weatherlink.com 1.10,2013-01-11 20:16:00,
2013-01-11 14:31:00,61.4,49.0,29.75,South,190,12.0,18.0,64,0.00,,,0.00,weatherlink.com 1.10,2013-01-11 20:31:00,
2013-01-11 14:46:00,61.1,48.0,29.75,SSW,208,8.0,17.0,63,0.00,,,0.00,weatherlink.com 1.10,2013-01-11 20:46:00,
2013-01-11 15:01:00,61.1,49.0,29.75,South,185,14.0,17.0,65,0.00,,,0.00,weatherlink.com 1.10,2013-01-11 21:01:00,
2013-01-11 15:16:00,60.7,49.0,29.75,SSE,160,9.0,15.0,65,0.00,,,0.00,weatherlink.com 1.10,2013-01-11 21:16:00,
2013-01-11 15:31:00,60.7,49.0,29.74,SSE,159,8.0,18.0,65,0.00,,,0.00,weatherlink.com 1.10,2013-01-11 21:31:00,
2013-01-11 15:46:00,60.6,48.0,29.74,SSE,164,8.0,19.0,64,0.00,,,0.00,weatherlink.com 1.10,2013-01-11 21:46:00,
2013-01-11 16:01:00,61.3,48.0,29.74,SE,134,7.0,19.0,62,0.00,,,0.00,weatherlink.com 1.10,2013-01-11 22:01:00,
2013-01-11 16:16:00,61.1,48.0,29.73,South,191,2.0,15.0,62,0.00,,,0.00,weatherlink.com 1.10,2013-01-11 22:16:00,
2013-01-11 16:31:00,59.8,48.0,29.73,SE,143,8.0,15.0,65,0.00,,,0.00,weatherlink.com 1.10,2013-01-11 22:31:00,
2013-01-11 16:46:00,59.1,48.0,29.74,SE,143,11.0,12.0,67,0.00,,,0.00,weatherlink.com 1.10,2013-01-11 22:46:00,
2013-01-11 17:01:00,59.0,48.0,29.75,ESE,104,6.0,15.0,67,0.00,,,0.00,weatherlink.com 1.10,2013-01-11 23:01:00,
2013-01-11 17:16:00,59.0,48.0,29.74,South,170,8.0,17.0,66,0.00,,,0.00,weatherlink.com 1.10,2013-01-11 23:16:00,
2013-01-11 17:31:00,58.8,47.0,29.74,SSE,153,9.0,18.0,66,0.00,,,0.00,weatherlink.com 1.10,2013-01-11 23:31:00,
2013-01-11 17:46:00,58.8,47.0,29.75,South,177,6.0,19.0,65,0.00,,,0.00,weatherlink.com 1.10,2013-01-11 23:46:00,
2013-01-11 18:01:00,58.7,47.0,29.75,SSE,153,8.0,19.0,66,0.00,,,0.00,weatherlink.com 1.10,2013-01-12 00:01:00,
2013-01-11 18:16:00,58.8,47.0,29.75,SSE,153,14.0,20.0,66,0.00,,,0.00,weatherlink.com 1.10,2013-01-12 00:16:00,
2013-01-11 18:31:00,58.4,47.0,29.75,SSE,150,15.0,20.0,67,0.00,,,0.00,weatherlink.com 1.10,2013-01-12 00:31:00,
2013-01-11 18:46:00,57.8,47.0,29.74,SSE,147,9.0,22.0,68,0.00,,,0.00,weatherlink.com 1.10,2013-01-12 00:46:00,
2013-01-11 19:01:00,57.2,47.0,29.74,South,169,5.0,20.0,70,0.00,,,0.00,weatherlink.com 1.10,2013-01-12 01:01:00,
2013-01-11 19:16:00,57.1,48.0,29.75,SE,139,11.0,18.0,71,0.00,,,0.00,weatherlink.com 1.10,2013-01-12 01:16:00,
2013-01-11 19:31:00,56.7,48.0,29.74,SSW,198,6.0,24.0,72,0.00,,,0.00,weatherlink.com 1.10,2013-01-12 01:31:00,
2013-01-11 19:46:00,56.2,48.0,29.75,SE,127,10.0,29.0,74,0.00,,,0.00,weatherlink.com 1.10,2013-01-12 01:46:00,
2013-01-11 20:01:00,56.0,48.0,29.75,SSE,160,7.0,23.0,74,0.00,,,0.00,weatherlink.com 1.10,2013-01-12 02:01:00,
2013-01-11 20:16:00,55.6,48.0,29.75,SSE,151,13.0,20.0,75,0.00,,,0.00,weatherlink.com 1.10,2013-01-12 02:16:00,
2013-01-11 20:31:00,55.2,48.0,29.74,SSE,162,14.0,21.0,76,0.00,,,0.00,weatherlink.com 1.10,2013-01-12 02:31:00,
2013-01-11 20:46:00,54.9,48.0,29.75,South,179,5.0,22.0,77,0.00,,,0.00,weatherlink.com 1.10,2013-01-12 02:46:00,
2013-01-11 21:01:00,54.5,48.0,29.75,SSW,201,5.0,17.0,78,0.00,,,0.00,weatherlink.com 1.10,2013-01-12 03:01:00,
2013-01-11 21:16:00,54.5,48.0,29.75,SW,214,8.0,23.0,79,0.00,,,0.00,weatherlink.com 1.10,2013-01-12 03:16:00,
2013-01-11 21:31:00,54.1,48.0,29.76,SSW,201,4.0,23.0,79,0.00,,,0.00,weatherlink.com 1.10,2013-01-12 03:31:00,
2013-01-11 21:46:00,54.1,48.0,29.77,SSW,194,8.0,16.0,80,0.00,,,0.00,weatherlink.com 1.10,2013-01-12 03:46:00,
2013-01-11 22:01:00,54.1,48.0,29.76,SSW,212,3.0,16.0,79,0.00,,,0.00,weatherlink.com 1.10,2013-01-12 04:01:00,
2013-01-11 22:16:00,54.2,48.0,29.77,SSW,201,7.0,18.0,79,0.00,,,0.00,weatherlink.com 1.10,2013-01-12 04:16:00,
2013-01-11 22:31:00,54.3,48.0,29.76,SW,232,11.0,18.0,79,0.00,,,0.00,weatherlink.com 1.10,2013-01-12 04:31:00,
2013-01-11 22:46:00,54.5,48.0,29.76,SW,226,14.0,21.0,78,0.00,,,0.00,weatherlink.com 1.10,2013-01-12 04:46:00,
2013-01-11 23:02:00,54.7,48.0,29.76,South,171,9.0,17.0,78,0.00,,,0.00,weatherlink.com 1.10,2013-01-12 05:02:00,
2013-01-11 23:17:00,54.8,48.0,29.76,SSW,194,12.0,23.0,77,0.00,,,0.00,weatherlink.com 1.10,2013-01-12 05:17:00,
2013-01-11 23:31:00,55.0,48.0,29.77,SSW,212,10.0,19.0,77,0.00,,,0.00,weatherlink.com 1.10,2013-01-12 05:31:00,
2013-01-11 23:46:00,54.8,48.0,29.77,SW,215,11.0,15.0,78,0.00,,,0.00,weatherlink.com 1.10,2013-01-12 05:46:00,